NOAA 16 DEB, 41347

Orbit data source: Space-Track

NOAA 16 DEB, 41347 is space debris in SSO originally from a launch on Thu, 21 Sep 2000 UTC launched from the Air Force Western Test Range (AFWTR). Debris objects in space refer to the collection of defunct objects orbiting the Earth. Examples of debris include non-operational satellites, rocket bodies, and fragments generated from explosions, collisions, or faulty payload assembly.

Loading next visibility...
Identifier
41347, 2000-055HQ
Orbit
SSO
Country
Flag of USUS
Related business
Manufacturer
Unknown
Mission
Spacecraft
Bus & Motor
Unknown
Mass
Unknown
Launch date (UTC)
2000-09-21 (26 years ago)
Launch vehicle
Unknown
Launch site
Air Force Western Test Range (AFWTR)
Object type
Payload
Rocket body
Debris
Shape & HBR
Unknown shape, 0.1 m
Radar Cross Section
Medium (>0.1 m² and <1 m²)

Expand to show TLE details & history
Last TLE update: 3 days ago

TLE from 3 days ago
0 NOAA 16 DEB
1 41347U 00055HQ  26170.16707812  .00004056  00000-0  14290-2 0  9990
2 41347  98.7002 247.8630 0016188 358.9245   1.1903 14.35287906537517
Epoch: 2026-06-19T04:00Z
TLE epoch observation values (Epoch: 2026-06-19T04:00:35.549Z)
Latitude
0.00003°
Longitude
-79.68507°
Altitude
765.468 km
Speed
7.478 km/s
True Right ascension
16h 31m 27s
True Declination
0° 00' 00"
Sunlit
Object was in full shadow at epoch
Visualization orbit readout
Latitude
Unknown
Longitude
Unknown
Altitude
Unknown
Speed
Unknown
Apparent Right ascension
Unknown
Apparent Declination
Unknown
Sunlit
N/A
Visualization observer readout
Local Sidereal Time
21:35:15
Azimuth
Unknown
Elevation
Unknown
Doppler factor
Unknown
Orbital elements
Apogee altitude
782.821 km
Perigee altitude
759.674 km
Semi-major axis
7,149.385 km
Eccentricity
0.00162
Inclination
98.7002°
RAAN
247.863°
Arg. of periapsis
358.9245°
True anomaly
1.19416°
Mean anomaly
1.1903°
Eccentric anomaly
1.19223°
Mean motion
3.59038 °/min
Orbital period
100.27 mins
BSTAR
0.001429
Loading maneuver chart data...
Computing Atmospheric mass density...
Loading historical data...
Loading historical data...
Loading historical data...
Loading historical data...
Loading historical data...
Loading historical data...
Loading historical data...

Documentation

Showing up to 5 results
|